NORTHEAST SUFFOLK  -  Winter Weather Advisory Winter Weather Advisory        NORTHERN NASSAU  -  Winter Weather Advisory Winter Weather Advisory        NORTHWEST SUFFOLK  -  Winter Weather Advisory Winter Weather Advisory        SOUTHEAST SUFFOLK  -  Winter Weather Advisory Winter Weather Advisory        SOUTHERN NASSAU  -  Winter Weather Advisory Winter Weather Advisory        SOUTHWEST SUFFOLK  -  Winter Weather Advisory Winter Weather Advisory      

Active alerts

Northern Nassau
  Details for Northern Nassau Winter Weather Advisory
Southern Nassau
  Details for Southern Nassau Winter Weather Advisory
Northwest Suffolk
  Details for Northwest Suffolk Winter Weather Advisory
Southwest Suffolk
  Details for Southwest Suffolk Winter Weather Advisory
Northeast Suffolk
  Details for Northeast Suffolk Winter Weather Advisory
Southeast Suffolk
  Details for Southeast Suffolk Winter Weather Advisory


WXM80 ListenWXM80 Stop

You find our weather info also at:

UK Metoffice

WeatherCloud

Weather Underground

Northeastern Weather Network

AWEKAS

Citizen Weather Observer Program (CWOP)

HAMweather, WeatherForYou, PWS Weather


Weather Underground History page Text

Daily Summary for January 21, 2017 Units:  Both    English   Metric
« Previous Day
Next Day »
Daily Weekly Monthly Yearly Custom
  High: Low: Average:
Temperature: 53.5 °F /  11.9 °C 40.1 °F /  4.5 °C 45.1 °F /  7.3 °C
Dew Point: 47.1 °F /  8.4 °C 38.6 °F /  3.7 °C 42.8 °F /  6 °C
Humidity: 97 % 77 % 92 %
Wind Speed: 5.6 mph /  9 km/h - 1.3 mph /  2.1 km/h
Wind Gust: 9.2 mph /  14.8 km/h - -
Wind:- - WSW
Pressure: 29.90 in /  1012.4 hPa 29.75 in /  1007.3 hPa -
Precipitation: 0.00 in /  0 mm    
Historical Graphs
 
 
Tabular Data for January 21, 2017
Time Temperature Dew Point Pressure Wind Wind Speed Wind Gust Humidity Rainfall Rate (Hourly)
00:04 40.2 °F /  4.6 °C 38.6 °F /  3.7 °C 29.88 in /  1011.7 hPa Calm     94 % 0.01 in /  0.25 mm
00:09 40.3 °F /  4.6 °C 38.7 °F /  3.7 °C 29.88 in /  1011.7 hPa Calm     94 % 0.01 in /  0.25 mm
00:14 40.2 °F /  4.6 °C 38.6 °F /  3.7 °C 29.89 in /  1012.1 hPa ESE 0.1 mph /  0.2 km/h 1.2 mph /  1.9 km/h 94 % 0.01 in /  0.25 mm
00:19 40.2 °F /  4.6 °C 38.9 °F /  3.8 °C 29.89 in /  1012.1 hPa ESE 0.4 mph /  0.6 km/h 1.2 mph /  1.9 km/h 95 % 0.01 in /  0.25 mm
00:24 40.2 °F /  4.6 °C 38.9 °F /  3.8 °C 29.89 in /  1012.1 hPa ESE 1.2 mph /  1.9 km/h 2.3 mph /  3.7 km/h 95 % 0.01 in /  0.25 mm
00:29 40.2 °F /  4.6 °C 38.9 °F /  3.8 °C 29.89 in /  1012.1 hPa Calm   3.5 mph /  5.6 km/h 95 % 0.01 in /  0.25 mm
00:34 40.2 °F /  4.6 °C 38.9 °F /  3.8 °C 29.89 in /  1012.1 hPa WNW 0.1 mph /  0.2 km/h 1.2 mph /  1.9 km/h 95 % 0.01 in /  0.25 mm
00:39 40.1 °F /  4.5 °C 38.8 °F /  3.8 °C 29.90 in /  1012.4 hPa Calm     95 % 0.00 in /  0 mm
00:44 40.1 °F /  4.5 °C 38.8 °F /  3.8 °C 29.90 in /  1012.4 hPa WNW 1.2 mph /  1.9 km/h 2.3 mph /  3.7 km/h 95 % 0.00 in /  0 mm
00:49 40.1 °F /  4.5 °C 38.8 °F /  3.8 °C 29.89 in /  1012.1 hPa WNW 0.4 mph /  0.6 km/h 2.3 mph /  3.7 km/h 95 % 0.00 in /  0 mm
00:54 40.1 °F /  4.5 °C 38.8 °F /  3.8 °C 29.90 in /  1012.4 hPa WNW 1.7 mph /  2.7 km/h 3.5 mph /  5.6 km/h 95 % 0.00 in /  0 mm
00:59 40.1 °F /  4.5 °C 38.8 °F /  3.8 °C 29.89 in /  1012.1 hPa West 0.7 mph /  1.1 km/h 1.2 mph /  1.9 km/h 95 % 0.00 in /  0 mm
01:05 40.1 °F /  4.5 °C 38.8 °F /  3.8 °C 29.89 in /  1012.1 hPa Calm   1.2 mph /  1.9 km/h 95 % 0.00 in /  0 mm
01:10 40.1 °F /  4.5 °C 38.8 °F /  3.8 °C 29.89 in /  1012.1 hPa West 1.3 mph /  2.1 km/h 2.3 mph /  3.7 km/h 95 % 0.00 in /  0 mm
01:15 40.1 °F /  4.5 °C 38.8 °F /  3.8 °C 29.89 in /  1012.1 hPa Calm   1.2 mph /  1.9 km/h 95 % 0.00 in /  0 mm
01:20 40.1 °F /  4.5 °C 38.8 °F /  3.8 °C 29.89 in /  1012.1 hPa West 0.5 mph /  0.8 km/h 2.0 mph /  3.2 km/h 95 % 0.00 in /  0 mm
01:25 40.1 °F /  4.5 °C 38.8 °F /  3.8 °C 29.90 in /  1012.4 hPa Calm     95 % 0.00 in /  0 mm
01:30 40.1 °F /  4.5 °C 38.8 °F /  3.8 °C 29.90 in /  1012.4 hPa Calm   1.2 mph /  1.9 km/h 95 % 0.00 in /  0 mm
01:35 40.1 °F /  4.5 °C 38.8 °F /  3.8 °C 29.89 in /  1012.1 hPa Calm     95 % 0.00 in /  0 mm
01:40 40.2 °F /  4.6 °C 38.9 °F /  3.8 °C 29.89 in /  1012.1 hPa Calm     95 % 0.00 in /  0 mm
01:45 40.1 °F /  4.5 °C 38.8 °F /  3.8 °C 29.89 in /  1012.1 hPa Calm     95 % 0.00 in /  0 mm
01:50 40.1 °F /  4.5 °C 38.8 °F /  3.8 °C 29.89 in /  1012.1 hPa Calm     95 % 0.00 in /  0 mm
01:55 40.1 °F /  4.5 °C 38.8 °F /  3.8 °C 29.89 in /  1012.1 hPa Calm     95 % 0.00 in /  0 mm
02:00 40.1 °F /  4.5 °C 38.8 °F /  3.8 °C 29.89 in /  1012.1 hPa Calm     95 % 0.00 in /  0 mm
02:05 40.2 °F /  4.6 °C 38.9 °F /  3.8 °C 29.90 in /  1012.4 hPa Calm     95 % 0.00 in /  0 mm
02:10 40.2 °F /  4.6 °C 38.9 °F /  3.8 °C 29.90 in /  1012.4 hPa Calm     95 % 0.00 in /  0 mm
02:15 40.2 °F /  4.6 °C 38.9 °F /  3.8 °C 29.89 in /  1012.1 hPa Calm     95 % 0.00 in /  0 mm
02:20 40.2 °F /  4.6 °C 38.9 °F /  3.8 °C 29.89 in /  1012.1 hPa Calm     95 % 0.00 in /  0 mm
02:26 40.2 °F /  4.6 °C 38.9 °F /  3.8 °C 29.89 in /  1012.1 hPa Calm     95 % 0.00 in /  0 mm
02:31 40.2 °F /  4.6 °C 38.9 °F /  3.8 °C 29.89 in /  1012.1 hPa Calm     95 % 0.00 in /  0 mm
02:36 40.2 °F /  4.6 °C 38.9 °F /  3.8 °C 29.89 in /  1012.1 hPa Calm     95 % 0.00 in /  0 mm
02:41 40.2 °F /  4.6 °C 38.9 °F /  3.8 °C 29.88 in /  1011.7 hPa Calm     95 % 0.00 in /  0 mm
02:46 40.3 °F /  4.6 °C 39.0 °F /  3.9 °C 29.88 in /  1011.7 hPa Calm     95 % 0.00 in /  0 mm
02:51 40.3 °F /  4.6 °C 39.0 °F /  3.9 °C 29.88 in /  1011.7 hPa West 0.4 mph /  0.6 km/h 1.2 mph /  1.9 km/h 95 % 0.00 in /  0 mm
02:56 40.3 °F /  4.6 °C 39.3 °F /  4.1 °C 29.88 in /  1011.7 hPa West 0.4 mph /  0.6 km/h 2.3 mph /  3.7 km/h 96 % 0.00 in /  0 mm
03:01 40.4 °F /  4.7 °C 39.4 °F /  4.1 °C 29.87 in /  1011.4 hPa SW 0.1 mph /  0.2 km/h 1.2 mph /  1.9 km/h 96 % 0.00 in /  0 mm
03:06 40.5 °F /  4.7 °C 39.4 °F /  4.1 °C 29.87 in /  1011.4 hPa SW 0.8 mph /  1.3 km/h 2.3 mph /  3.7 km/h 96 % 0.00 in /  0 mm
03:11 40.6 °F /  4.8 °C 39.5 °F /  4.2 °C 29.87 in /  1011.4 hPa SW 0.1 mph /  0.2 km/h 1.2 mph /  1.9 km/h 96 % 0.00 in /  0 mm
03:16 40.6 °F /  4.8 °C 39.5 °F /  4.2 °C 29.86 in /  1011.1 hPa Calm   1.2 mph /  1.9 km/h 96 % 0.00 in /  0 mm
03:21 40.7 °F /  4.8 °C 39.6 °F /  4.2 °C 29.86 in /  1011.1 hPa SW 1.2 mph /  1.9 km/h 3.0 mph /  4.8 km/h 96 % 0.00 in /  0 mm
03:26 40.9 °F /  4.9 °C 39.8 °F /  4.3 °C 29.86 in /  1011.1 hPa SW 0.3 mph /  0.5 km/h 2.3 mph /  3.7 km/h 96 % 0.00 in /  0 mm
03:31 41.1 °F /  5.1 °C 40.0 °F /  4.4 °C 29.86 in /  1011.1 hPa SW 0.7 mph /  1.1 km/h 2.3 mph /  3.7 km/h 96 % 0.00 in /  0 mm
03:36 41.1 °F /  5.1 °C 40.0 °F /  4.4 °C 29.86 in /  1011.1 hPa SW 0.3 mph /  0.5 km/h 2.3 mph /  3.7 km/h 96 % 0.00 in /  0 mm
03:41 41.2 °F /  5.1 °C 40.1 °F /  4.5 °C 29.86 in /  1011.1 hPa South 1.2 mph /  1.9 km/h 4.0 mph /  6.4 km/h 96 % 0.00 in /  0 mm
03:46 41.3 °F /  5.2 °C 40.2 °F /  4.6 °C 29.86 in /  1011.1 hPa SW 0.5 mph /  0.8 km/h 2.3 mph /  3.7 km/h 96 % 0.00 in /  0 mm
03:51 41.4 °F /  5.2 °C 40.3 °F /  4.6 °C 29.86 in /  1011.1 hPa SW 1.4 mph /  2.3 km/h 3.5 mph /  5.6 km/h 96 % 0.00 in /  0 mm
03:57 41.5 °F /  5.3 °C 40.4 °F /  4.7 °C 29.86 in /  1011.1 hPa WSW 2.0 mph /  3.2 km/h 4.0 mph /  6.4 km/h 96 % 0.00 in /  0 mm
04:02 41.6 °F /  5.3 °C 40.5 °F /  4.7 °C 29.85 in /  1010.7 hPa WSW 2.3 mph /  3.7 km/h 5.0 mph /  8 km/h 96 % 0.00 in /  0 mm
04:07 41.8 °F /  5.4 °C 40.7 °F /  4.8 °C 29.85 in /  1010.7 hPa SW 2.7 mph /  4.3 km/h 5.8 mph /  9.3 km/h 96 % 0.00 in /  0 mm
04:12 41.9 °F /  5.5 °C 40.8 °F /  4.9 °C 29.85 in /  1010.7 hPa WSW 3.1 mph /  5 km/h 6.9 mph /  11.1 km/h 96 % 0.00 in /  0 mm
04:17 42.0 °F /  5.6 °C 40.9 °F /  4.9 °C 29.85 in /  1010.7 hPa WSW 1.3 mph /  2.1 km/h 4.6 mph /  7.4 km/h 96 % 0.00 in /  0 mm
04:22 42.2 °F /  5.7 °C 41.1 °F /  5.1 °C 29.85 in /  1010.7 hPa SW 3.2 mph /  5.1 km/h 5.8 mph /  9.3 km/h 96 % 0.00 in /  0 mm
04:27 42.3 °F /  5.7 °C 41.2 °F /  5.1 °C 29.85 in /  1010.7 hPa SW 2.4 mph /  3.9 km/h 4.6 mph /  7.4 km/h 96 % 0.00 in /  0 mm
04:32 42.3 °F /  5.7 °C 41.5 °F /  5.3 °C 29.85 in /  1010.7 hPa SW 5.6 mph /  9 km/h 9.2 mph /  14.8 km/h 97 % 0.00 in /  0 mm
04:37 42.4 °F /  5.8 °C 41.6 °F /  5.3 °C 29.85 in /  1010.7 hPa WSW 1.5 mph /  2.4 km/h 3.5 mph /  5.6 km/h 97 % 0.00 in /  0 mm
04:42 42.5 °F /  5.8 °C 41.7 °F /  5.4 °C 29.85 in /  1010.7 hPa SW 3.7 mph /  6 km/h 6.9 mph /  11.1 km/h 97 % 0.00 in /  0 mm
04:47 42.5 °F /  5.8 °C 41.4 °F /  5.2 °C 29.85 in /  1010.7 hPa WSW 4.2 mph /  6.8 km/h 8.1 mph /  13 km/h 96 % 0.00 in /  0 mm
04:52 42.5 °F /  5.8 °C 41.4 °F /  5.2 °C 29.85 in /  1010.7 hPa WSW 1.2 mph /  1.9 km/h 3.5 mph /  5.6 km/h 96 % 0.00 in /  0 mm
04:57 42.6 °F /  5.9 °C 41.5 °F /  5.3 °C 29.86 in /  1011.1 hPa WSW 3.9 mph /  6.3 km/h 8.1 mph /  13 km/h 96 % 0.00 in /  0 mm
05:02 42.7 °F /  5.9 °C 41.6 °F /  5.3 °C 29.86 in /  1011.1 hPa WSW 5.4 mph /  8.7 km/h 6.0 mph /  9.7 km/h 96 % 0.00 in /  0 mm
05:07 42.7 °F /  5.9 °C 41.6 °F /  5.3 °C 29.85 in /  1010.7 hPa WSW 4.2 mph /  6.8 km/h 8.1 mph /  13 km/h 96 % 0.00 in /  0 mm
05:12 42.7 °F /  5.9 °C 41.9 °F /  5.5 °C 29.86 in /  1011.1 hPa WSW 4.9 mph /  7.9 km/h 8.1 mph /  13 km/h 97 % 0.00 in /  0 mm
05:18 42.8 °F /  6 °C 42.0 °F /  5.6 °C 29.86 in /  1011.1 hPa WSW 4.3 mph /  6.9 km/h 6.9 mph /  11.1 km/h 97 % 0.00 in /  0 mm
05:23 42.8 °F /  6 °C 41.7 °F /  5.4 °C 29.86 in /  1011.1 hPa WSW 1.8 mph /  2.9 km/h 6.0 mph /  9.7 km/h 96 % 0.00 in /  0 mm
05:28 42.9 °F /  6.1 °C 41.8 °F /  5.4 °C 29.85 in /  1010.7 hPa SW 3.5 mph /  5.6 km/h 3.5 mph /  5.6 km/h 96 % 0.00 in /  0 mm
05:33 42.9 °F /  6.1 °C 41.8 °F /  5.4 °C 29.85 in /  1010.7 hPa SW 1.7 mph /  2.7 km/h 3.5 mph /  5.6 km/h 96 % 0.00 in /  0 mm
05:38 42.8 °F /  6 °C 41.7 °F /  5.4 °C 29.85 in /  1010.7 hPa WSW 0.8 mph /  1.3 km/h 2.3 mph /  3.7 km/h 96 % 0.00 in /  0 mm
05:43 42.8 °F /  6 °C 41.7 °F /  5.4 °C 29.84 in /  1010.4 hPa West 0.5 mph /  0.8 km/h 3.5 mph /  5.6 km/h 96 % 0.00 in /  0 mm
05:48 42.8 °F /  6 °C 41.7 °F /  5.4 °C 29.84 in /  1010.4 hPa Calm     96 % 0.00 in /  0 mm
05:53 42.8 °F /  6 °C 41.7 °F /  5.4 °C 29.84 in /  1010.4 hPa West 0.1 mph /  0.2 km/h 1.2 mph /  1.9 km/h 96 % 0.00 in /  0 mm
05:58 42.8 °F /  6 °C 41.7 °F /  5.4 °C 29.85 in /  1010.7 hPa West 0.9 mph /  1.4 km/h 2.3 mph /  3.7 km/h 96 % 0.00 in /  0 mm
06:03 42.8 °F /  6 °C 41.7 °F /  5.4 °C 29.84 in /  1010.4 hPa West 0.9 mph /  1.4 km/h 3.5 mph /  5.6 km/h 96 % 0.00 in /  0 mm
06:08 42.8 °F /  6 °C 41.7 °F /  5.4 °C 29.84 in /  1010.4 hPa Calm   1.2 mph /  1.9 km/h 96 % 0.00 in /  0 mm
06:13 42.8 °F /  6 °C 41.7 °F /  5.4 °C 29.85 in /  1010.7 hPa West 1.4 mph /  2.3 km/h 2.3 mph /  3.7 km/h 96 % 0.00 in /  0 mm
06:18 42.8 °F /  6 °C 41.7 °F /  5.4 °C 29.85 in /  1010.7 hPa Calm     96 % 0.00 in /  0 mm
06:19 42.8 °F /  6 °C 41.7 °F /  5.4 °C 29.84 in /  1010.4 hPa West 0.1 mph /  0.2 km/h 1.2 mph /  1.9 km/h 96 % 0.00 in /  0 mm
06:24 42.8 °F /  6 °C 41.7 °F /  5.4 °C 29.84 in /  1010.4 hPa West 1.0 mph /  1.6 km/h 3.5 mph /  5.6 km/h 96 % 0.00 in /  0 mm
06:29 42.8 °F /  6 °C 41.7 °F /  5.4 °C 29.85 in /  1010.7 hPa SW 2.3 mph /  3.7 km/h 4.6 mph /  7.4 km/h 96 % 0.00 in /  0 mm
06:34 42.8 °F /  6 °C 41.7 °F /  5.4 °C 29.85 in /  1010.7 hPa SW 1.6 mph /  2.6 km/h 3.5 mph /  5.6 km/h 96 % 0.00 in /  0 mm
06:39 42.8 °F /  6 °C 41.7 °F /  5.4 °C 29.85 in /  1010.7 hPa WSW 0.7 mph /  1.1 km/h 3.5 mph /  5.6 km/h 96 % 0.00 in /  0 mm
06:44 42.8 °F /  6 °C 41.7 °F /  5.4 °C 29.85 in /  1010.7 hPa SW 1.6 mph /  2.6 km/h 4.0 mph /  6.4 km/h 96 % 0.00 in /  0 mm
06:49 42.7 °F /  5.9 °C 41.6 °F /  5.3 °C 29.85 in /  1010.7 hPa SW 2.2 mph /  3.5 km/h 3.5 mph /  5.6 km/h 96 % 0.00 in /  0 mm
06:54 42.8 °F /  6 °C 41.7 °F /  5.4 °C 29.85 in /  1010.7 hPa SW 4.4 mph /  7.1 km/h 4.4 mph /  7.1 km/h 96 % 0.00 in /  0 mm
06:59 42.8 °F /  6 °C 41.7 °F /  5.4 °C 29.85 in /  1010.7 hPa SW 0.5 mph /  0.8 km/h 2.3 mph /  3.7 km/h 96 % 0.00 in /  0 mm
07:05 42.8 °F /  6 °C 41.7 °F /  5.4 °C 29.85 in /  1010.7 hPa SW 0.2 mph /  0.3 km/h 1.2 mph /  1.9 km/h 96 % 0.00 in /  0 mm
07:10 42.8 °F /  6 °C 41.7 °F /  5.4 °C 29.85 in /  1010.7 hPa SW 3.2 mph /  5.1 km/h 3.5 mph /  5.6 km/h 96 % 0.00 in /  0 mm
07:15 42.8 °F /  6 °C 41.7 °F /  5.4 °C 29.85 in /  1010.7 hPa SW 2.4 mph /  3.9 km/h 4.0 mph /  6.4 km/h 96 % 0.00 in /  0 mm
07:20 42.8 °F /  6 °C 41.7 °F /  5.4 °C 29.85 in /  1010.7 hPa WSW 1.7 mph /  2.7 km/h 3.5 mph /  5.6 km/h 96 % 0.00 in /  0 mm
07:25 42.8 °F /  6 °C 41.7 °F /  5.4 °C 29.85 in /  1010.7 hPa SW 1.5 mph /  2.4 km/h 3.5 mph /  5.6 km/h 96 % 0.00 in /  0 mm
07:30 42.9 °F /  6.1 °C 41.8 °F /  5.4 °C 29.85 in /  1010.7 hPa WSW 1.2 mph /  1.9 km/h 3.5 mph /  5.6 km/h 96 % 0.00 in /  0 mm
07:35 42.9 °F /  6.1 °C 41.8 °F /  5.4 °C 29.85 in /  1010.7 hPa West 0.7 mph /  1.1 km/h 3.5 mph /  5.6 km/h 96 % 0.00 in /  0 mm
07:40 42.9 °F /  6.1 °C 41.8 °F /  5.4 °C 29.85 in /  1010.7 hPa WSW 2.7 mph /  4.3 km/h 4.6 mph /  7.4 km/h 96 % 0.00 in /  0 mm
07:45 43.0 °F /  6.1 °C 41.9 °F /  5.5 °C 29.85 in /  1010.7 hPa SW 1.8 mph /  2.9 km/h 4.6 mph /  7.4 km/h 96 % 0.00 in /  0 mm
07:50 43.0 °F /  6.1 °C 41.9 °F /  5.5 °C 29.85 in /  1010.7 hPa Calm     96 % 0.00 in /  0 mm
07:55 43.0 °F /  6.1 °C 41.9 °F /  5.5 °C 29.85 in /  1010.7 hPa WSW 0.3 mph /  0.5 km/h 2.3 mph /  3.7 km/h 96 % 0.00 in /  0 mm
08:00 43.1 °F /  6.2 °C 42.0 °F /  5.6 °C 29.85 in /  1010.7 hPa SW 0.7 mph /  1.1 km/h 2.3 mph /  3.7 km/h 96 % 0.00 in /  0 mm
08:05 43.1 °F /  6.2 °C 42.0 °F /  5.6 °C 29.85 in /  1010.7 hPa SW 1.0 mph /  1.6 km/h 2.3 mph /  3.7 km/h 96 % 0.00 in /  0 mm
08:10 43.2 °F /  6.2 °C 42.1 °F /  5.6 °C 29.84 in /  1010.4 hPa Calm     96 % 0.00 in /  0 mm
08:15 43.3 °F /  6.3 °C 42.2 °F /  5.7 °C 29.85 in /  1010.7 hPa SW 0.1 mph /  0.2 km/h 1.2 mph /  1.9 km/h 96 % 0.00 in /  0 mm
08:20 43.4 °F /  6.3 °C 42.3 °F /  5.7 °C 29.84 in /  1010.4 hPa SW 1.4 mph /  2.3 km/h 3.5 mph /  5.6 km/h 96 % 0.00 in /  0 mm
08:24 43.4 °F /  6.3 °C 42.4 °F /  5.8 °C 29.84 in /  1010.4 hPa Calm   3.0 mph /  4.8 km/h 96 % 0.00 in /  0 mm
08:29 43.6 °F /  6.4 °C 42.5 °F /  5.8 °C 29.84 in /  1010.4 hPa SW 1.0 mph /  1.6 km/h 4.0 mph /  6.4 km/h 96 % 0.00 in /  0 mm
08:34 43.8 °F /  6.6 °C 42.7 °F /  5.9 °C 29.85 in /  1010.7 hPa SW 1.0 mph /  1.6 km/h 5.0 mph /  8 km/h 96 % 0.00 in /  0 mm
08:39 43.9 °F /  6.6 °C 42.8 °F /  6 °C 29.85 in /  1010.7 hPa Calm   2.0 mph /  3.2 km/h 96 % 0.00 in /  0 mm
08:44 44.1 °F /  6.7 °C 43.0 °F /  6.1 °C 29.84 in /  1010.4 hPa Calm     96 % 0.00 in /  0 mm
08:49 44.2 °F /  6.8 °C 43.1 °F /  6.2 °C 29.84 in /  1010.4 hPa Calm   4.0 mph /  6.4 km/h 96 % 0.00 in /  0 mm
08:54 44.4 °F /  6.9 °C 43.3 °F /  6.3 °C 29.84 in /  1010.4 hPa SW 0.8 mph /  1.3 km/h 2.3 mph /  3.7 km/h 96 % 0.00 in /  0 mm
08:59 44.6 °F /  7 °C 43.8 °F /  6.6 °C 29.84 in /  1010.4 hPa SW 1.4 mph /  2.3 km/h 3.5 mph /  5.6 km/h 97 % 0.00 in /  0 mm
09:04 44.7 °F /  7.1 °C 43.6 °F /  6.4 °C 29.85 in /  1010.7 hPa SW 0.7 mph /  1.1 km/h 3.5 mph /  5.6 km/h 96 % 0.00 in /  0 mm
09:09 44.9 °F /  7.2 °C 43.8 °F /  6.6 °C 29.85 in /  1010.7 hPa SW 3.7 mph /  6 km/h 5.0 mph /  8 km/h 96 % 0.00 in /  0 mm
09:14 45.0 °F /  7.2 °C 43.9 °F /  6.6 °C 29.85 in /  1010.7 hPa SW 3.5 mph /  5.6 km/h 4.6 mph /  7.4 km/h 96 % 0.00 in /  0 mm
09:19 45.1 °F /  7.3 °C 44.0 °F /  6.7 °C 29.85 in /  1010.7 hPa West 0.3 mph /  0.5 km/h 3.5 mph /  5.6 km/h 96 % 0.00 in /  0 mm
09:24 45.2 °F /  7.3 °C 44.1 °F /  6.7 °C 29.85 in /  1010.7 hPa Calm     96 % 0.00 in /  0 mm
09:29 45.2 °F /  7.3 °C 44.1 °F /  6.7 °C 29.85 in /  1010.7 hPa SW 1.1 mph /  1.8 km/h 3.5 mph /  5.6 km/h 96 % 0.00 in /  0 mm
09:34 45.4 °F /  7.4 °C 44.3 °F /  6.8 °C 29.85 in /  1010.7 hPa WSW 2.3 mph /  3.7 km/h 3.5 mph /  5.6 km/h 96 % 0.00 in /  0 mm
09:39 45.6 °F /  7.6 °C 44.3 °F /  6.8 °C 29.85 in /  1010.7 hPa WSW 3.1 mph /  5 km/h 3.5 mph /  5.6 km/h 95 % 0.00 in /  0 mm
09:44 45.8 °F /  7.7 °C 44.4 °F /  6.9 °C 29.85 in /  1010.7 hPa SSW 3.3 mph /  5.3 km/h 4.6 mph /  7.4 km/h 95 % 0.00 in /  0 mm
09:49 46.0 °F /  7.8 °C 44.6 °F /  7 °C 29.85 in /  1010.7 hPa West 2.0 mph /  3.2 km/h 3.5 mph /  5.6 km/h 95 % 0.00 in /  0 mm
09:54 46.3 °F /  7.9 °C 44.9 °F /  7.2 °C 29.86 in /  1011.1 hPa SW 2.0 mph /  3.2 km/h 3.5 mph /  5.6 km/h 95 % 0.00 in /  0 mm
09:59 46.6 °F /  8.1 °C 45.0 °F /  7.2 °C 29.85 in /  1010.7 hPa SW 2.6 mph /  4.2 km/h 4.0 mph /  6.4 km/h 94 % 0.00 in /  0 mm
10:04 46.9 °F /  8.3 °C 45.0 °F /  7.2 °C 29.85 in /  1010.7 hPa South 4.5 mph /  7.2 km/h 6.9 mph /  11.1 km/h 93 % 0.00 in /  0 mm
10:10 47.3 °F /  8.5 °C 45.4 °F /  7.4 °C 29.84 in /  1010.4 hPa SSW 1.6 mph /  2.6 km/h 5.0 mph /  8 km/h 93 % 0.00 in /  0 mm
10:15 47.6 °F /  8.7 °C 45.4 °F /  7.4 °C 29.84 in /  1010.4 hPa WNW 2.6 mph /  4.2 km/h 4.6 mph /  7.4 km/h 92 % 0.00 in /  0 mm
10:20 47.9 °F /  8.8 °C 45.4 °F /  7.4 °C 29.84 in /  1010.4 hPa West 1.6 mph /  2.6 km/h 3.5 mph /  5.6 km/h 91 % 0.00 in /  0 mm
10:25 48.0 °F /  8.9 °C 45.2 °F /  7.3 °C 29.84 in /  1010.4 hPa WSW 1.8 mph /  2.9 km/h 3.5 mph /  5.6 km/h 90 % 0.00 in /  0 mm
10:30 48.1 °F /  8.9 °C 45.3 °F /  7.4 °C 29.84 in /  1010.4 hPa West 3.6 mph /  5.8 km/h 4.6 mph /  7.4 km/h 90 % 0.00 in /  0 mm
10:35 48.3 °F /  9.1 °C 45.2 °F /  7.3 °C 29.84 in /  1010.4 hPa West 4.4 mph /  7.1 km/h 6.9 mph /  11.1 km/h 89 % 0.00 in /  0 mm
10:40 48.4 °F /  9.1 °C 45.3 °F /  7.4 °C 29.84 in /  1010.4 hPa WSW 3.3 mph /  5.3 km/h 5.8 mph /  9.3 km/h 89 % 0.00 in /  0 mm
10:45 48.6 °F /  9.2 °C 45.2 °F /  7.3 °C 29.83 in /  1010 hPa WNW 2.9 mph /  4.7 km/h 5.8 mph /  9.3 km/h 88 % 0.00 in /  0 mm
10:50 48.8 °F /  9.3 °C 45.4 °F /  7.4 °C 29.83 in /  1010 hPa Calm   1.2 mph /  1.9 km/h 88 % 0.00 in /  0 mm
10:55 49.0 °F /  9.4 °C 45.6 °F /  7.6 °C 29.82 in /  1009.7 hPa WSW 2.4 mph /  3.9 km/h 4.0 mph /  6.4 km/h 88 % 0.00 in /  0 mm
11:00 49.2 °F /  9.6 °C 45.8 °F /  7.7 °C 29.82 in /  1009.7 hPa WNW 4.2 mph /  6.8 km/h 5.8 mph /  9.3 km/h 88 % 0.00 in /  0 mm
11:05 49.4 °F /  9.7 °C 45.7 °F /  7.6 °C 29.82 in /  1009.7 hPa West 1.4 mph /  2.3 km/h 5.8 mph /  9.3 km/h 87 % 0.00 in /  0 mm
11:10 49.6 °F /  9.8 °C 45.9 °F /  7.7 °C 29.82 in /  1009.7 hPa WNW 4.5 mph /  7.2 km/h 5.8 mph /  9.3 km/h 87 % 0.00 in /  0 mm
11:15 49.7 °F /  9.8 °C 46.0 °F /  7.8 °C 29.82 in /  1009.7 hPa WNW 2.9 mph /  4.7 km/h 3.5 mph /  5.6 km/h 87 % 0.00 in /  0 mm
11:20 49.9 °F /  9.9 °C 45.9 °F /  7.7 °C 29.83 in /  1010 hPa West 3.7 mph /  6 km/h 4.6 mph /  7.4 km/h 86 % 0.00 in /  0 mm
11:26 49.9 °F /  9.9 °C 45.6 °F /  7.6 °C 29.83 in /  1010 hPa West 3.7 mph /  6 km/h 5.0 mph /  8 km/h 85 % 0.00 in /  0 mm
11:31 50.0 °F /  10 °C 45.7 °F /  7.6 °C 29.83 in /  1010 hPa West 0.6 mph /  1 km/h 3.5 mph /  5.6 km/h 85 % 0.00 in /  0 mm
11:36 50.0 °F /  10 °C 45.7 °F /  7.6 °C 29.82 in /  1009.7 hPa WNW 1.6 mph /  2.6 km/h 2.3 mph /  3.7 km/h 85 % 0.00 in /  0 mm
11:41 50.1 °F /  10.1 °C 45.8 °F /  7.7 °C 29.82 in /  1009.7 hPa NW 1.6 mph /  2.6 km/h 4.0 mph /  6.4 km/h 85 % 0.00 in /  0 mm
11:46 50.1 °F /  10.1 °C 45.8 °F /  7.7 °C 29.82 in /  1009.7 hPa NW 0.8 mph /  1.3 km/h 3.5 mph /  5.6 km/h 85 % 0.00 in /  0 mm
11:51 50.1 °F /  10.1 °C 45.8 °F /  7.7 °C 29.82 in /  1009.7 hPa NNW 1.8 mph /  2.9 km/h 5.8 mph /  9.3 km/h 85 % 0.00 in /  0 mm
11:56 50.1 °F /  10.1 °C 45.8 °F /  7.7 °C 29.82 in /  1009.7 hPa WSW 3.5 mph /  5.6 km/h 5.0 mph /  8 km/h 85 % 0.00 in /  0 mm
12:01 50.1 °F /  10.1 °C 45.5 °F /  7.5 °C 29.82 in /  1009.7 hPa WSW 2.7 mph /  4.3 km/h 5.0 mph /  8 km/h 84 % 0.00 in /  0 mm
12:06 50.1 °F /  10.1 °C 45.5 °F /  7.5 °C 29.82 in /  1009.7 hPa WSW 2.3 mph /  3.7 km/h 4.0 mph /  6.4 km/h 84 % 0.00 in /  0 mm
12:11 50.3 °F /  10.2 °C 46.0 °F /  7.8 °C 29.82 in /  1009.7 hPa WSW 2.0 mph /  3.2 km/h 3.5 mph /  5.6 km/h 85 % 0.00 in /  0 mm
12:16 50.5 °F /  10.3 °C 46.2 °F /  7.9 °C 29.81 in /  1009.4 hPa WNW 0.4 mph /  0.6 km/h 2.3 mph /  3.7 km/h 85 % 0.00 in /  0 mm
12:21 50.8 °F /  10.4 °C 46.1 °F /  7.8 °C 29.81 in /  1009.4 hPa WNW 0.9 mph /  1.4 km/h 2.3 mph /  3.7 km/h 84 % 0.00 in /  0 mm
12:26 51.1 °F /  10.6 °C 46.4 °F /  8 °C 29.81 in /  1009.4 hPa WSW 5.0 mph /  8 km/h 8.1 mph /  13 km/h 84 % 0.00 in /  0 mm
12:31 51.3 °F /  10.7 °C 46.3 °F /  7.9 °C 29.81 in /  1009.4 hPa West 2.1 mph /  3.4 km/h 5.8 mph /  9.3 km/h 83 % 0.00 in /  0 mm
12:36 51.6 °F /  10.9 °C 46.3 °F /  7.9 °C 29.80 in /  1009 hPa West 3.1 mph /  5 km/h 4.6 mph /  7.4 km/h 82 % 0.00 in /  0 mm
12:41 51.9 °F /  11.1 °C 46.9 °F /  8.3 °C 29.79 in /  1008.7 hPa SW 2.7 mph /  4.3 km/h 5.8 mph /  9.3 km/h 83 % 0.00 in /  0 mm
12:46 52.2 °F /  11.2 °C 46.9 °F /  8.3 °C 29.79 in /  1008.7 hPa WNW 2.5 mph /  4 km/h 8.1 mph /  13 km/h 82 % 0.00 in /  0 mm
12:51 52.4 °F /  11.3 °C 47.1 °F /  8.4 °C 29.79 in /  1008.7 hPa WSW 4.2 mph /  6.8 km/h 7.0 mph /  11.3 km/h 82 % 0.00 in /  0 mm
12:57 52.4 °F /  11.3 °C 46.4 °F /  8 °C 29.79 in /  1008.7 hPa SSW 4.2 mph /  6.8 km/h 4.6 mph /  7.4 km/h 80 % 0.00 in /  0 mm
13:02 52.4 °F /  11.3 °C 46.4 °F /  8 °C 29.79 in /  1008.7 hPa SW 5.0 mph /  8 km/h 5.8 mph /  9.3 km/h 80 % 0.00 in /  0 mm
13:07 52.6 °F /  11.4 °C 46.6 °F /  8.1 °C 29.78 in /  1008.4 hPa SW 4.8 mph /  7.7 km/h 6.9 mph /  11.1 km/h 80 % 0.00 in /  0 mm
13:12 52.7 °F /  11.5 °C 46.7 °F /  8.2 °C 29.78 in /  1008.4 hPa WNW 4.3 mph /  6.9 km/h 6.0 mph /  9.7 km/h 80 % 0.00 in /  0 mm
13:17 52.7 °F /  11.5 °C 46.7 °F /  8.2 °C 29.78 in /  1008.4 hPa SW 2.8 mph /  4.5 km/h 5.0 mph /  8 km/h 80 % 0.00 in /  0 mm
13:22 52.8 °F /  11.6 °C 46.5 °F /  8.1 °C 29.77 in /  1008 hPa WSW 3.1 mph /  5 km/h 5.0 mph /  8 km/h 79 % 0.00 in /  0 mm
13:27 52.8 °F /  11.6 °C 46.8 °F /  8.2 °C 29.77 in /  1008 hPa WNW 1.4 mph /  2.3 km/h 4.0 mph /  6.4 km/h 80 % 0.00 in /  0 mm
13:32 52.9 °F /  11.6 °C 46.9 °F /  8.3 °C 29.77 in /  1008 hPa NW 2.5 mph /  4 km/h 3.5 mph /  5.6 km/h 80 % 0.00 in /  0 mm
13:37 53.0 °F /  11.7 °C 47.0 °F /  8.3 °C 29.77 in /  1008 hPa West 0.4 mph /  0.6 km/h 2.3 mph /  3.7 km/h 80 % 0.00 in /  0 mm
13:42 53.1 °F /  11.7 °C 46.8 °F /  8.2 °C 29.77 in /  1008 hPa WSW 2.1 mph /  3.4 km/h 5.8 mph /  9.3 km/h 79 % 0.00 in /  0 mm
13:47 53.3 °F /  11.8 °C 47.0 °F /  8.3 °C 29.76 in /  1007.7 hPa West 0.1 mph /  0.2 km/h 1.2 mph /  1.9 km/h 79 % 0.00 in /  0 mm
13:52 53.4 °F /  11.9 °C 46.7 °F /  8.2 °C 29.76 in /  1007.7 hPa SW 1.9 mph /  3.1 km/h 5.0 mph /  8 km/h 78 % 0.00 in /  0 mm
13:57 53.5 °F /  11.9 °C 46.8 °F /  8.2 °C 29.76 in /  1007.7 hPa WNW 2.0 mph /  3.2 km/h 3.5 mph /  5.6 km/h 78 % 0.00 in /  0 mm
14:02 53.3 °F /  11.8 °C 46.6 °F /  8.1 °C 29.76 in /  1007.7 hPa WNW 3.7 mph /  6 km/h 5.8 mph /  9.3 km/h 78 % 0.00 in /  0 mm
14:07 53.1 °F /  11.7 °C 46.1 °F /  7.8 °C 29.76 in /  1007.7 hPa NNW 2.9 mph /  4.7 km/h 4.0 mph /  6.4 km/h 77 % 0.00 in /  0 mm
14:12 52.6 °F /  11.4 °C 45.6 °F /  7.6 °C 29.76 in /  1007.7 hPa NW 2.7 mph /  4.3 km/h 5.0 mph /  8 km/h 77 % 0.00 in /  0 mm
14:17 52.3 °F /  11.3 °C 46.0 °F /  7.8 °C 29.76 in /  1007.7 hPa NW 1.1 mph /  1.8 km/h 3.5 mph /  5.6 km/h 79 % 0.00 in /  0 mm
14:22 52.0 °F /  11.1 °C 45.7 °F /  7.6 °C 29.76 in /  1007.7 hPa NNW 1.5 mph /  2.4 km/h 3.0 mph /  4.8 km/h 79 % 0.00 in /  0 mm
14:27 51.7 °F /  10.9 °C 45.4 °F /  7.4 °C 29.75 in /  1007.3 hPa NW 2.1 mph /  3.4 km/h 3.5 mph /  5.6 km/h 79 % 0.00 in /  0 mm
14:32 51.4 °F /  10.8 °C 45.4 °F /  7.4 °C 29.76 in /  1007.7 hPa WNW 2.5 mph /  4 km/h 3.5 mph /  5.6 km/h 80 % 0.00 in /  0 mm
14:38 51.0 °F /  10.6 °C 45.0 °F /  7.2 °C 29.76 in /  1007.7 hPa WNW 1.2 mph /  1.9 km/h 3.5 mph /  5.6 km/h 80 % 0.00 in /  0 mm
14:43 50.6 °F /  10.3 °C 44.7 °F /  7.1 °C 29.76 in /  1007.7 hPa NNW 2.7 mph /  4.3 km/h 3.5 mph /  5.6 km/h 80 % 0.00 in /  0 mm
14:48 50.1 °F /  10.1 °C 44.5 °F /  6.9 °C 29.76 in /  1007.7 hPa NW 3.2 mph /  5.1 km/h 5.8 mph /  9.3 km/h 81 % 0.00 in /  0 mm
14:53 49.7 °F /  9.8 °C 44.4 °F /  6.9 °C 29.76 in /  1007.7 hPa NW 2.7 mph /  4.3 km/h 4.0 mph /  6.4 km/h 82 % 0.00 in /  0 mm
14:58 49.5 °F /  9.7 °C 44.2 °F /  6.8 °C 29.77 in /  1008 hPa NW 3.3 mph /  5.3 km/h 6.9 mph /  11.1 km/h 82 % 0.00 in /  0 mm
15:03 49.1 °F /  9.5 °C 44.2 °F /  6.8 °C 29.76 in /  1007.7 hPa NW 3.2 mph /  5.1 km/h 3.5 mph /  5.6 km/h 83 % 0.00 in /  0 mm
15:08 48.9 °F /  9.4 °C 44.3 °F /  6.8 °C 29.77 in /  1008 hPa WNW 0.4 mph /  0.6 km/h 3.5 mph /  5.6 km/h 84 % 0.00 in /  0 mm
15:14 48.7 °F /  9.3 °C 44.1 °F /  6.7 °C 29.77 in /  1008 hPa NW 2.6 mph /  4.2 km/h 4.6 mph /  7.4 km/h 84 % 0.00 in /  0 mm
15:19 48.6 °F /  9.2 °C 44.3 °F /  6.8 °C 29.77 in /  1008 hPa WNW 2.7 mph /  4.3 km/h 3.5 mph /  5.6 km/h 85 % 0.00 in /  0 mm
15:24 48.5 °F /  9.2 °C 44.2 °F /  6.8 °C 29.77 in /  1008 hPa NW 2.2 mph /  3.5 km/h 4.0 mph /  6.4 km/h 85 % 0.00 in /  0 mm
15:29 48.5 °F /  9.2 °C 44.2 °F /  6.8 °C 29.77 in /  1008 hPa NW 1.0 mph /  1.6 km/h 2.0 mph /  3.2 km/h 85 % 0.00 in /  0 mm
15:34 48.4 °F /  9.1 °C 44.4 °F /  6.9 °C 29.77 in /  1008 hPa Calm   3.0 mph /  4.8 km/h 86 % 0.00 in /  0 mm
15:39 48.4 °F /  9.1 °C 44.4 °F /  6.9 °C 29.77 in /  1008 hPa NW 1.0 mph /  1.6 km/h 2.0 mph /  3.2 km/h 86 % 0.00 in /  0 mm
15:44 48.4 °F /  9.1 °C 44.4 °F /  6.9 °C 29.77 in /  1008 hPa Calm   2.0 mph /  3.2 km/h 86 % 0.00 in /  0 mm
15:49 48.4 °F /  9.1 °C 44.4 °F /  6.9 °C 29.78 in /  1008.4 hPa Calm   1.0 mph /  1.6 km/h 86 % 0.00 in /  0 mm
15:54 48.4 °F /  9.1 °C 44.7 °F /  7.1 °C 29.77 in /  1008 hPa Calm     87 % 0.00 in /  0 mm
15:59 48.4 °F /  9.1 °C 44.7 °F /  7.1 °C 29.77 in /  1008 hPa Calm     87 % 0.00 in /  0 mm
16:04 48.4 °F /  9.1 °C 44.7 °F /  7.1 °C 29.77 in /  1008 hPa Calm     87 % 0.00 in /  0 mm
16:09 48.3 °F /  9.1 °C 44.6 °F /  7 °C 29.77 in /  1008 hPa Calm     87 % 0.00 in /  0 mm
16:14 48.4 °F /  9.1 °C 44.7 °F /  7.1 °C 29.77 in /  1008 hPa Calm     87 % 0.00 in /  0 mm
16:19 48.3 °F /  9.1 °C 44.6 °F /  7 °C 29.77 in /  1008 hPa Calm     87 % 0.00 in /  0 mm
16:24 48.3 °F /  9.1 °C 44.6 °F /  7 °C 29.77 in /  1008 hPa Calm     87 % 0.00 in /  0 mm
16:29 48.3 °F /  9.1 °C 44.6 °F /  7 °C 29.76 in /  1007.7 hPa NW 0.2 mph /  0.3 km/h 1.2 mph /  1.9 km/h 87 % 0.00 in /  0 mm
16:34 48.3 °F /  9.1 °C 44.6 °F /  7 °C 29.77 in /  1008 hPa Calm     87 % 0.00 in /  0 mm
16:39 48.3 °F /  9.1 °C 44.9 °F /  7.2 °C 29.77 in /  1008 hPa Calm     88 % 0.00 in /  0 mm
16:44 48.3 °F /  9.1 °C 44.9 °F /  7.2 °C 29.76 in /  1007.7 hPa Calm     88 % 0.00 in /  0 mm
16:49 48.2 °F /  9 °C 44.8 °F /  7.1 °C 29.77 in /  1008 hPa Calm     88 % 0.00 in /  0 mm
16:54 48.1 °F /  8.9 °C 44.7 °F /  7.1 °C 29.77 in /  1008 hPa Calm     88 % 0.00 in /  0 mm
16:59 48.0 °F /  8.9 °C 44.3 °F /  6.8 °C 29.77 in /  1008 hPa Calm     87 % 0.00 in /  0 mm
17:04 47.9 °F /  8.8 °C 44.2 °F /  6.8 °C 29.77 in /  1008 hPa Calm     87 % 0.00 in /  0 mm
17:09 47.8 °F /  8.8 °C 44.1 °F /  6.7 °C 29.77 in /  1008 hPa Calm     87 % 0.00 in /  0 mm
17:15 47.6 °F /  8.7 °C 44.2 °F /  6.8 °C 29.77 in /  1008 hPa Calm     88 % 0.00 in /  0 mm
17:20 47.5 °F /  8.6 °C 44.1 °F /  6.7 °C 29.77 in /  1008 hPa NW 0.1 mph /  0.2 km/h 1.0 mph /  1.6 km/h 88 % 0.00 in /  0 mm
17:25 47.3 °F /  8.5 °C 43.9 °F /  6.6 °C 29.77 in /  1008 hPa WSW 0.1 mph /  0.2 km/h 1.2 mph /  1.9 km/h 88 % 0.00 in /  0 mm
17:30 47.1 °F /  8.4 °C 43.7 °F /  6.5 °C 29.77 in /  1008 hPa WSW 1.0 mph /  1.6 km/h 2.0 mph /  3.2 km/h 88 % 0.00 in /  0 mm
17:35 47.0 °F /  8.3 °C 43.6 °F /  6.4 °C 29.77 in /  1008 hPa WSW 0.4 mph /  0.6 km/h 1.2 mph /  1.9 km/h 88 % 0.00 in /  0 mm
17:40 46.9 °F /  8.3 °C 43.8 °F /  6.6 °C 29.77 in /  1008 hPa Calm   1.2 mph /  1.9 km/h 89 % 0.00 in /  0 mm
17:45 46.7 °F /  8.2 °C 43.3 °F /  6.3 °C 29.77 in /  1008 hPa Calm   1.2 mph /  1.9 km/h 88 % 0.00 in /  0 mm
17:50 46.5 °F /  8.1 °C 43.4 °F /  6.3 °C 29.77 in /  1008 hPa WSW 1.7 mph /  2.7 km/h 3.5 mph /  5.6 km/h 89 % 0.00 in /  0 mm
17:55 46.4 °F /  8 °C 43.3 °F /  6.3 °C 29.77 in /  1008 hPa WSW 0.7 mph /  1.1 km/h 2.3 mph /  3.7 km/h 89 % 0.00 in /  0 mm
18:00 46.2 °F /  7.9 °C 43.1 °F /  6.2 °C 29.78 in /  1008.4 hPa WSW 1.2 mph /  1.9 km/h 2.3 mph /  3.7 km/h 89 % 0.00 in /  0 mm
18:05 46.1 °F /  7.8 °C 43.3 °F /  6.3 °C 29.77 in /  1008 hPa SSW 0.8 mph /  1.3 km/h 2.3 mph /  3.7 km/h 90 % 0.00 in /  0 mm
18:10 45.9 °F /  7.7 °C 42.8 °F /  6 °C 29.77 in /  1008 hPa SSW 1.4 mph /  2.3 km/h 2.3 mph /  3.7 km/h 89 % 0.00 in /  0 mm
18:15 45.8 °F /  7.7 °C 42.7 °F /  5.9 °C 29.77 in /  1008 hPa SSW 1.5 mph /  2.4 km/h 3.0 mph /  4.8 km/h 89 % 0.00 in /  0 mm
18:20 45.5 °F /  7.5 °C 42.7 °F /  5.9 °C 29.77 in /  1008 hPa SSW 2.3 mph /  3.7 km/h 3.5 mph /  5.6 km/h 90 % 0.00 in /  0 mm
18:25 45.3 °F /  7.4 °C 42.5 °F /  5.8 °C 29.78 in /  1008.4 hPa SSW 2.8 mph /  4.5 km/h 3.5 mph /  5.6 km/h 90 % 0.00 in /  0 mm
18:30 45.2 °F /  7.3 °C 42.7 °F /  5.9 °C 29.78 in /  1008.4 hPa SW 1.6 mph /  2.6 km/h 3.5 mph /  5.6 km/h 91 % 0.00 in /  0 mm
18:35 45.0 °F /  7.2 °C 42.5 °F /  5.8 °C 29.78 in /  1008.4 hPa SSW 2.0 mph /  3.2 km/h 3.5 mph /  5.6 km/h 91 % 0.00 in /  0 mm
18:40 45.0 °F /  7.2 °C 42.5 °F /  5.8 °C 29.78 in /  1008.4 hPa South 2.1 mph /  3.4 km/h 3.5 mph /  5.6 km/h 91 % 0.00 in /  0 mm
18:46 44.8 °F /  7.1 °C 42.3 °F /  5.7 °C 29.78 in /  1008.4 hPa SW 1.8 mph /  2.9 km/h 2.3 mph /  3.7 km/h 91 % 0.00 in /  0 mm
18:51 44.7 °F /  7.1 °C 42.2 °F /  5.7 °C 29.78 in /  1008.4 hPa SSW 2.3 mph /  3.7 km/h 3.5 mph /  5.6 km/h 91 % 0.00 in /  0 mm
18:56 44.6 °F /  7 °C 42.1 °F /  5.6 °C 29.78 in /  1008.4 hPa SSW 1.0 mph /  1.6 km/h 3.5 mph /  5.6 km/h 91 % 0.00 in /  0 mm
19:01 44.5 °F /  6.9 °C 42.3 °F /  5.7 °C 29.78 in /  1008.4 hPa SSW 2.0 mph /  3.2 km/h 2.0 mph /  3.2 km/h 92 % 0.00 in /  0 mm
19:06 44.4 °F /  6.9 °C 42.2 °F /  5.7 °C 29.78 in /  1008.4 hPa SSW 0.5 mph /  0.8 km/h 4.0 mph /  6.4 km/h 92 % 0.00 in /  0 mm
19:11 44.3 °F /  6.8 °C 42.1 °F /  5.6 °C 29.78 in /  1008.4 hPa South 0.9 mph /  1.4 km/h 3.5 mph /  5.6 km/h 92 % 0.00 in /  0 mm
19:16 44.1 °F /  6.7 °C 41.9 °F /  5.5 °C 29.78 in /  1008.4 hPa South 0.6 mph /  1 km/h 3.5 mph /  5.6 km/h 92 % 0.00 in /  0 mm
19:21 44.1 °F /  6.7 °C 41.9 °F /  5.5 °C 29.78 in /  1008.4 hPa SW 1.0 mph /  1.6 km/h 2.3 mph /  3.7 km/h 92 % 0.00 in /  0 mm
19:26 43.9 °F /  6.6 °C 41.7 °F /  5.4 °C 29.78 in /  1008.4 hPa SSW 2.4 mph /  3.9 km/h 3.5 mph /  5.6 km/h 92 % 0.00 in /  0 mm
19:31 43.8 °F /  6.6 °C 41.9 °F /  5.5 °C 29.78 in /  1008.4 hPa SSW 1.0 mph /  1.6 km/h 2.3 mph /  3.7 km/h 93 % 0.00 in /  0 mm
19:36 43.8 °F /  6.6 °C 41.9 °F /  5.5 °C 29.78 in /  1008.4 hPa SSW 0.2 mph /  0.3 km/h 1.2 mph /  1.9 km/h 93 % 0.00 in /  0 mm
19:41 43.7 °F /  6.5 °C 41.8 °F /  5.4 °C 29.78 in /  1008.4 hPa SSW 1.3 mph /  2.1 km/h 3.5 mph /  5.6 km/h 93 % 0.00 in /  0 mm
19:46 43.7 °F /  6.5 °C 41.8 °F /  5.4 °C 29.78 in /  1008.4 hPa SSW 1.2 mph /  1.9 km/h 3.5 mph /  5.6 km/h 93 % 0.00 in /  0 mm
19:51 43.6 °F /  6.4 °C 41.7 °F /  5.4 °C 29.78 in /  1008.4 hPa Calm   1.2 mph /  1.9 km/h 93 % 0.00 in /  0 mm
19:56 43.5 °F /  6.4 °C 41.6 °F /  5.3 °C 29.78 in /  1008.4 hPa SSW 0.5 mph /  0.8 km/h 2.0 mph /  3.2 km/h 93 % 0.00 in /  0 mm
20:01 43.4 °F /  6.3 °C 41.5 °F /  5.3 °C 29.78 in /  1008.4 hPa SSW 1.4 mph /  2.3 km/h 2.3 mph /  3.7 km/h 93 % 0.00 in /  0 mm
20:06 43.4 °F /  6.3 °C 41.5 °F /  5.3 °C 29.77 in /  1008 hPa SSW 1.1 mph /  1.8 km/h 2.3 mph /  3.7 km/h 93 % 0.00 in /  0 mm
20:12 43.3 °F /  6.3 °C 41.4 °F /  5.2 °C 29.77 in /  1008 hPa SSW 1.1 mph /  1.8 km/h 2.3 mph /  3.7 km/h 93 % 0.00 in /  0 mm
20:17 43.3 °F /  6.3 °C 41.4 °F /  5.2 °C 29.77 in /  1008 hPa SSW 1.8 mph /  2.9 km/h 3.5 mph /  5.6 km/h 93 % 0.00 in /  0 mm
20:22 43.2 °F /  6.2 °C 41.6 °F /  5.3 °C 29.78 in /  1008.4 hPa Calm     94 % 0.00 in /  0 mm
20:27 43.2 °F /  6.2 °C 41.3 °F /  5.2 °C 29.78 in /  1008.4 hPa Calm   1.0 mph /  1.6 km/h 93 % 0.00 in /  0 mm
20:32 43.2 °F /  6.2 °C 41.6 °F /  5.3 °C 29.77 in /  1008 hPa SSW 0.8 mph /  1.3 km/h 2.3 mph /  3.7 km/h 94 % 0.00 in /  0 mm
20:37 43.2 °F /  6.2 °C 41.6 °F /  5.3 °C 29.77 in /  1008 hPa Calm     94 % 0.00 in /  0 mm
20:42 43.1 °F /  6.2 °C 41.5 °F /  5.3 °C 29.77 in /  1008 hPa Calm     94 % 0.00 in /  0 mm
20:47 43.1 °F /  6.2 °C 41.5 °F /  5.3 °C 29.77 in /  1008 hPa Calm     94 % 0.00 in /  0 mm
20:52 43.1 °F /  6.2 °C 41.5 °F /  5.3 °C 29.76 in /  1007.7 hPa SW 0.5 mph /  0.8 km/h 2.3 mph /  3.7 km/h 94 % 0.00 in /  0 mm
20:57 43.1 °F /  6.2 °C 41.5 °F /  5.3 °C 29.77 in /  1008 hPa SW 0.4 mph /  0.6 km/h 1.2 mph /  1.9 km/h 94 % 0.00 in /  0 mm
21:02 43.2 °F /  6.2 °C 41.6 °F /  5.3 °C 29.77 in /  1008 hPa Calm     94 % 0.00 in /  0 mm
21:07 43.2 °F /  6.2 °C 41.9 °F /  5.5 °C 29.77 in /  1008 hPa SW 0.1 mph /  0.2 km/h   95 % 0.00 in /  0 mm
21:12 43.3 °F /  6.3 °C 42.0 °F /  5.6 °C 29.76 in /  1007.7 hPa SW 0.1 mph /  0.2 km/h 1.2 mph /  1.9 km/h 95 % 0.00 in /  0 mm
21:17 43.3 °F /  6.3 °C 42.0 °F /  5.6 °C 29.77 in /  1008 hPa SW 0.1 mph /  0.2 km/h 1.2 mph /  1.9 km/h 95 % 0.00 in /  0 mm
21:22 43.3 °F /  6.3 °C 42.0 °F /  5.6 °C 29.76 in /  1007.7 hPa Calm     95 % 0.00 in /  0 mm
21:27 43.4 °F /  6.3 °C 42.1 °F /  5.6 °C 29.76 in /  1007.7 hPa SW 0.2 mph /  0.3 km/h 1.2 mph /  1.9 km/h 95 % 0.00 in /  0 mm
21:32 43.5 °F /  6.4 °C 42.2 °F /  5.7 °C 29.76 in /  1007.7 hPa SW 1.4 mph /  2.3 km/h 3.5 mph /  5.6 km/h 95 % 0.00 in /  0 mm
21:38 43.6 °F /  6.4 °C 42.3 °F /  5.7 °C 29.76 in /  1007.7 hPa Calm   1.2 mph /  1.9 km/h 95 % 0.00 in /  0 mm
21:43 43.6 °F /  6.4 °C 42.3 °F /  5.7 °C 29.76 in /  1007.7 hPa Calm     95 % 0.00 in /  0 mm
21:48 43.7 °F /  6.5 °C 42.4 °F /  5.8 °C 29.76 in /  1007.7 hPa Calm   2.3 mph /  3.7 km/h 95 % 0.00 in /  0 mm
21:53 43.7 °F /  6.5 °C 42.4 °F /  5.8 °C 29.76 in /  1007.7 hPa SW 1.0 mph /  1.6 km/h 2.0 mph /  3.2 km/h 95 % 0.00 in /  0 mm
21:58 43.9 °F /  6.6 °C 42.6 °F /  5.9 °C 29.76 in /  1007.7 hPa SSW 0.8 mph /  1.3 km/h 3.0 mph /  4.8 km/h 95 % 0.00 in /  0 mm
22:03 43.9 °F /  6.6 °C 42.8 °F /  6 °C 29.76 in /  1007.7 hPa Calm   3.5 mph /  5.6 km/h 96 % 0.00 in /  0 mm
22:08 44.0 °F /  6.7 °C 42.9 °F /  6.1 °C 29.76 in /  1007.7 hPa Calm     96 % 0.00 in /  0 mm
22:13 44.0 °F /  6.7 °C 42.9 °F /  6.1 °C 29.76 in /  1007.7 hPa SSW 0.2 mph /  0.3 km/h 1.2 mph /  1.9 km/h 96 % 0.00 in /  0 mm
22:18 44.1 °F /  6.7 °C 43.0 °F /  6.1 °C 29.76 in /  1007.7 hPa Calm     96 % 0.00 in /  0 mm
22:23 44.1 °F /  6.7 °C 43.0 °F /  6.1 °C 29.76 in /  1007.7 hPa Calm     96 % 0.00 in /  0 mm
22:28 44.1 °F /  6.7 °C 43.0 °F /  6.1 °C 29.76 in /  1007.7 hPa SSW 0.5 mph /  0.8 km/h 2.3 mph /  3.7 km/h 96 % 0.00 in /  0 mm
22:33 44.1 °F /  6.7 °C 43.0 °F /  6.1 °C 29.76 in /  1007.7 hPa Calm     96 % 0.00 in /  0 mm
22:38 44.1 °F /  6.7 °C 43.0 °F /  6.1 °C 29.77 in /  1008 hPa SSW 1.1 mph /  1.8 km/h 3.0 mph /  4.8 km/h 96 % 0.00 in /  0 mm
22:43 44.1 °F /  6.7 °C 43.0 °F /  6.1 °C 29.77 in /  1008 hPa Calm     96 % 0.00 in /  0 mm
22:48 44.1 °F /  6.7 °C 43.0 °F /  6.1 °C 29.77 in /  1008 hPa Calm     96 % 0.00 in /  0 mm
22:53 44.2 °F /  6.8 °C 43.1 °F /  6.2 °C 29.77 in /  1008 hPa SSW 0.9 mph /  1.4 km/h 3.0 mph /  4.8 km/h 96 % 0.00 in /  0 mm
22:59 44.2 °F /  6.8 °C 43.1 °F /  6.2 °C 29.77 in /  1008 hPa SW 3.2 mph /  5.1 km/h 4.6 mph /  7.4 km/h 96 % 0.00 in /  0 mm
23:04 44.2 °F /  6.8 °C 43.1 °F /  6.2 °C 29.78 in /  1008.4 hPa SW 3.5 mph /  5.6 km/h 4.6 mph /  7.4 km/h 96 % 0.00 in /  0 mm
23:09 44.3 °F /  6.8 °C 43.2 °F /  6.2 °C 29.77 in /  1008 hPa SW 2.6 mph /  4.2 km/h 4.0 mph /  6.4 km/h 96 % 0.00 in /  0 mm
23:14 44.3 °F /  6.8 °C 43.2 °F /  6.2 °C 29.77 in /  1008 hPa WSW 1.1 mph /  1.8 km/h 3.5 mph /  5.6 km/h 96 % 0.00 in /  0 mm
23:19 44.4 °F /  6.9 °C 43.3 °F /  6.3 °C 29.77 in /  1008 hPa SW 2.0 mph /  3.2 km/h 6.0 mph /  9.7 km/h 96 % 0.00 in /  0 mm
23:24 44.4 °F /  6.9 °C 43.3 °F /  6.3 °C 29.77 in /  1008 hPa SW 1.0 mph /  1.6 km/h 5.0 mph /  8 km/h 96 % 0.00 in /  0 mm
23:29 44.5 °F /  6.9 °C 43.4 °F /  6.3 °C 29.77 in /  1008 hPa SW 1.0 mph /  1.6 km/h 6.0 mph /  9.7 km/h 96 % 0.00 in /  0 mm
23:34 44.5 °F /  6.9 °C 43.7 °F /  6.5 °C 29.77 in /  1008 hPa SW 2.0 mph /  3.2 km/h 4.0 mph /  6.4 km/h 97 % 0.00 in /  0 mm
23:39 44.6 °F /  7 °C 43.8 °F /  6.6 °C 29.77 in /  1008 hPa WSW 2.0 mph /  3.2 km/h 5.0 mph /  8 km/h 97 % 0.00 in /  0 mm
23:44 44.7 °F /  7.1 °C 43.9 °F /  6.6 °C 29.77 in /  1008 hPa WSW 1.0 mph /  1.6 km/h 4.0 mph /  6.4 km/h 97 % 0.00 in /  0 mm
23:49 44.7 °F /  7.1 °C 43.9 °F /  6.6 °C 29.76 in /  1007.7 hPa WSW 1.0 mph /  1.6 km/h 3.0 mph /  4.8 km/h 97 % 0.00 in /  0 mm
23:54 44.8 °F /  7.1 °C 44.0 °F /  6.7 °C 29.76 in /  1007.7 hPa WNW 0.2 mph /  0.3 km/h 3.5 mph /  5.6 km/h 97 % 0.00 in /  0 mm
23:59 44.8 °F /  7.1 °C 44.0 °F /  6.7 °C 29.76 in /  1007.7 hPa Calm     97 % 0.00 in /  0 mm
Crab Meadow Weather
Compliments of Weather Underground - 3 mb

Script developed by  Jim McMurry - jmcmurry@mwt.net Adapted for the template by  Wim van der Kuil - Leuven-Template.eu

Extremes: The highest temperature ever recorded in the United States was 134 degrees F at Greenland Ranch in Death Valley, California.